"read_dt","SO2 (ppb)","flags","PMT voltage (V)","lamp voltage (V)","lamp intensity (Hz)","internal temp (C)","react chamber temp (C)","sample flow (l/min)","pres (mmHg)","SO2 bkg (ppb)","SO2 coefficient"
2016-05-31 00:00:00,2170E-3,5C000400,-0724,0831,12191,029.3,045.5,0.253,751.0,01.17,0.508
2016-05-31 00:01:00,2141E-3,5C000400,-0724,0831,12167,029.3,045.5,0.253,751.0,01.17,0.508
2016-05-31 00:02:00,2177E-3,5C000400,-0724,0832,12294,029.3,045.5,0.252,751.0,01.17,0.508
2016-05-31 00:03:00,2201E-3,5C000400,-0724,0831,12200,029.3,045.5,0.252,751.0,01.17,0.508
2016-05-31 00:04:00,2019E-3,5C000400,-0724,0831,12194,029.3,045.5,0.252,751.0,01.17,0.508
2016-05-31 00:05:00,2114E-3,5C000400,-0724,0832,12201,029.3,045.5,0.252,751.0,01.17,0.508
2016-05-31 00:06:00,2160E-3,5C000400,-0724,0832,12227,029.3,045.5,0.252,750.9,01.17,0.508
2016-05-31 00:07:00,2120E-3,5C000400,-0724,0832,12210,029.4,045.5,0.252,750.9,01.17,0.508
2016-05-31 00:08:00,2209E-3,5C000400,-0724,0832,12239,029.3,045.5,0.252,750.9,01.17,0.508
2016-05-31 00:09:00,2209E-3,5C000400,-0724,0832,12245,029.4,045.5,0.252,750.9,01.17,0.508
2016-05-31 00:10:00,2222E-3,5C000400,-0724,0831,12061,029.3,045.5,0.252,750.9,01.17,0.508
2016-05-31 00:11:00,2245E-3,5C000400,-0724,0832,12233,029.3,045.5,0.253,750.8,01.17,0.508
2016-05-31 00:12:00,2140E-3,5C000400,-0724,0832,12159,029.3,045.5,0.252,750.8,01.17,0.508
2016-05-31 00:13:00,2191E-3,5C000400,-0724,0832,12227,029.3,045.5,0.252,750.8,01.17,0.508
2016-05-31 00:14:00,2128E-3,5C000400,-0724,0831,12172,029.3,045.5,0.252,750.7,01.17,0.508
2016-05-31 00:15:00,2215E-3,5C000400,-0724,0831,12183,029.3,045.5,0.252,750.7,01.17,0.508
2016-05-31 00:16:00,2182E-3,5C000400,-0724,0831,12225,029.3,045.5,0.252,750.7,01.17,0.508
2016-05-31 00:17:00,2128E-3,5C000400,-0724,0831,12072,029.3,045.5,0.252,750.7,01.17,0.508
2016-05-31 00:18:00,2072E-3,5C000400,-0724,0831,12276,029.4,045.5,0.252,750.6,01.17,0.508
2016-05-31 00:19:00,2248E-3,5C000400,-0724,0831,12167,029.3,045.5,0.252,750.6,01.17,0.508
2016-05-31 00:20:00,2083E-3,5C000400,-0724,0831,12145,029.3,045.5,0.252,750.6,01.17,0.508
2016-05-31 00:21:00,2065E-3,5C000400,-0724,0831,12221,029.3,045.5,0.252,750.6,01.17,0.508
2016-05-31 00:22:00,2203E-3,5C000400,-0724,0832,12343,029.3,045.5,0.253,750.7,01.17,0.508
2016-05-31 00:23:00,2256E-3,5C000400,-0724,0831,12126,029.3,045.5,0.252,750.7,01.17,0.508
2016-05-31 00:24:00,2180E-3,5C000400,-0724,0833,12093,029.3,045.5,0.252,750.7,01.17,0.508
2016-05-31 00:25:00,2221E-3,5C000400,-0724,0831,12256,029.4,045.5,0.252,750.8,01.17,0.508
2016-05-31 00:26:00,2256E-3,5C000400,-0724,0831,12144,029.4,045.5,0.252,750.8,01.17,0.508
2016-05-31 00:27:00,2216E-3,5C000400,-0724,0831,12327,029.4,045.5,0.252,750.8,01.17,0.508
2016-05-31 00:28:00,2110E-3,5C000400,-0724,0831,12240,029.4,045.5,0.252,750.8,01.17,0.508
2016-05-31 00:29:00,2154E-3,5C000400,-0724,0831,12063,029.4,045.5,0.252,750.8,01.17,0.508
2016-05-31 00:30:00,1996E-3,5C000400,-0724,0831,12094,029.4,045.5,0.252,750.7,01.17,0.508
2016-05-31 00:31:00,2124E-3,5C000400,-0724,0832,12125,029.4,045.5,0.252,750.7,01.17,0.508
2016-05-31 00:32:00,2142E-3,5C000400,-0724,0831,12092,029.3,045.5,0.253,750.7,01.17,0.508
2016-05-31 00:33:00,2118E-3,5C000400,-0724,0831,12123,029.4,045.5,0.252,750.7,01.17,0.508
2016-05-31 00:34:00,2152E-3,5C000400,-0724,0831,12269,029.4,045.5,0.253,750.6,01.17,0.508
2016-05-31 00:35:00,2317E-3,5C000400,-0724,0831,12080,029.4,045.5,0.253,750.6,01.17,0.508
2016-05-31 00:36:00,2137E-3,5C000400,-0724,0832,12179,029.4,045.5,0.253,750.5,01.17,0.508
2016-05-31 00:37:00,2009E-3,5C000400,-0724,0832,12136,029.4,045.5,0.252,750.6,01.17,0.508
2016-05-31 00:38:00,2141E-3,5C000400,-0724,0831,12047,029.4,045.5,0.252,750.6,01.17,0.508
2016-05-31 00:39:00,2165E-3,5C000400,-0724,0832,12166,029.4,045.5,0.252,750.6,01.17,0.508
2016-05-31 00:40:00,2252E-3,5C000400,-0724,0831,12189,029.4,045.5,0.252,750.5,01.17,0.508
2016-05-31 00:41:00,2083E-3,5C000400,-0724,0832,12169,029.4,045.5,0.252,750.5,01.17,0.508
2016-05-31 00:42:00,2335E-3,5C000400,-0724,0831,12182,029.4,045.5,0.252,750.5,01.17,0.508
2016-05-31 00:43:00,2161E-3,5C000400,-0724,0832,12189,029.4,045.5,0.252,750.5,01.17,0.508
2016-05-31 00:44:00,2166E-3,5C000400,-0724,0832,12061,029.4,045.5,0.252,750.5,01.17,0.508
2016-05-31 00:45:00,2206E-3,5C000400,-0724,0831,12156,029.4,045.5,0.252,750.4,01.17,0.508
2016-05-31 00:46:00,2165E-3,5C000400,-0724,0831,12108,029.4,045.5,0.252,750.4,01.17,0.508
2016-05-31 00:47:00,2139E-3,5C000400,-0724,0831,12098,029.4,045.5,0.252,750.3,01.17,0.508
2016-05-31 00:48:00,2241E-3,5C000400,-0724,0831,12041,029.4,045.5,0.252,750.3,01.17,0.508
2016-05-31 00:49:00,2147E-3,5C000400,-0724,0831,12221,029.4,045.5,0.252,750.3,01.17,0.508
2016-05-31 00:50:00,2239E-3,5C000400,-0724,0832,12224,029.4,045.5,0.252,750.2,01.17,0.508
2016-05-31 00:51:00,2220E-3,5C000400,-0724,0831,12292,029.4,045.5,0.252,750.2,01.17,0.508
2016-05-31 00:52:00,2222E-3,5C000400,-0724,0831,12239,029.4,045.5,0.252,750.2,01.17,0.508
2016-05-31 00:53:00,2058E-3,5C000400,-0724,0832,12247,029.4,045.5,0.252,750.3,01.17,0.508
2016-05-31 00:54:00,2073E-3,5C000400,-0724,0831,12259,029.4,045.5,0.252,750.3,01.17,0.508
2016-05-31 00:55:00,2188E-3,5C000400,-0724,0832,12186,029.4,045.5,0.252,750.3,01.17,0.508
2016-05-31 00:56:00,2295E-3,5C000400,-0724,0832,12155,029.4,045.5,0.252,750.3,01.17,0.508
2016-05-31 00:57:00,2120E-3,5C000400,-0724,0831,12010,029.4,045.5,0.252,750.3,01.17,0.508
2016-05-31 00:58:00,2171E-3,5C000400,-0724,0832,12211,029.4,045.5,0.252,750.3,01.17,0.508
2016-05-31 00:59:00,2181E-3,5C000400,-0724,0831,12086,029.5,045.5,0.252,750.3,01.17,0.508
2016-05-31 01:00:00,2125E-3,5C000400,-0724,0831,12229,029.5,045.5,0.252,750.3,01.17,0.508
2016-05-31 01:01:00,2082E-3,5C000400,-0724,0831,12167,029.4,045.5,0.252,750.3,01.17,0.508
2016-05-31 01:02:00,2147E-3,5C000400,-0724,0832,12139,029.4,045.5,0.252,750.2,01.17,0.508
2016-05-31 01:03:00,2021E-3,5C000400,-0724,0832,12146,029.5,045.5,0.252,750.2,01.17,0.508
2016-05-31 01:04:00,2082E-3,5C000400,-0724,0832,12182,029.5,045.5,0.252,750.1,01.17,0.508
2016-05-31 01:05:00,2173E-3,5C000400,-0724,0832,12129,029.5,045.5,0.252,750.1,01.17,0.508
2016-05-31 01:06:00,2094E-3,5C000400,-0724,0833,12116,029.5,045.5,0.252,750.1,01.17,0.508
2016-05-31 01:07:00,2076E-3,5C000400,-0724,0831,12265,029.5,045.5,0.252,750.1,01.17,0.508
2016-05-31 01:08:00,2081E-3,5C000400,-0724,0831,12163,029.5,045.5,0.252,750.1,01.17,0.508
2016-05-31 01:09:00,2152E-3,5C000400,-0724,0832,12231,029.5,045.5,0.252,750.0,01.17,0.508
2016-05-31 01:10:00,2183E-3,5C000400,-0724,0831,12195,029.5,045.5,0.252,750.0,01.17,0.508
2016-05-31 01:11:00,2224E-3,5C000400,-0724,0831,12178,029.5,045.5,0.252,750.0,01.17,0.508
2016-05-31 01:12:00,2303E-3,5C000400,-0724,0831,12142,029.5,045.5,0.252,750.0,01.17,0.508
2016-05-31 01:13:00,1960E-3,5C000400,-0724,0831,12137,029.5,045.5,0.252,750.0,01.17,0.508
2016-05-31 01:14:00,1917E-3,5C000400,-0724,0831,12077,029.6,045.5,0.252,750.0,01.17,0.508
2016-05-31 01:15:00,2123E-3,5C000400,-0724,0831,12132,029.5,045.5,0.252,749.9,01.17,0.508
2016-05-31 01:16:00,2230E-3,5C000400,-0724,0831,12069,029.5,045.5,0.252,749.9,01.17,0.508
2016-05-31 01:17:00,2124E-3,5C000400,-0724,0831,12308,029.5,045.5,0.252,749.8,01.17,0.508
2016-05-31 01:18:00,2242E-3,5C000400,-0724,0832,12135,029.5,045.5,0.252,749.8,01.17,0.508
2016-05-31 01:19:00,2212E-3,5C000400,-0724,0831,12042,029.5,045.5,0.252,749.8,01.17,0.508
2016-05-31 01:20:00,2165E-3,5C000400,-0724,0832,12261,029.5,045.5,0.252,749.8,01.17,0.508
2016-05-31 01:21:00,2202E-3,5C000400,-0724,0832,12167,029.5,045.5,0.252,749.7,01.17,0.508
2016-05-31 01:22:00,2238E-3,5C000400,-0724,0831,12283,029.5,045.5,0.252,749.7,01.17,0.508
2016-05-31 01:23:00,2344E-3,5C000400,-0724,0831,12181,029.6,045.5,0.252,749.8,01.17,0.508
2016-05-31 01:24:00,2167E-3,5C000400,-0724,0832,12252,029.6,045.5,0.252,749.8,01.17,0.508
2016-05-31 01:25:00,2234E-3,5C000400,-0724,0832,12247,029.6,045.5,0.252,749.8,01.17,0.508
2016-05-31 01:26:00,2177E-3,5C000400,-0724,0832,12119,029.6,045.5,0.252,749.8,01.17,0.508
2016-05-31 01:27:00,2099E-3,5C000400,-0724,0831,12158,029.6,045.5,0.252,749.8,01.17,0.508
2016-05-31 01:28:00,2237E-3,5C000400,-0724,0831,12233,029.6,045.5,0.252,749.8,01.17,0.508
2016-05-31 01:29:00,2071E-3,5C000400,-0724,0832,12126,029.6,045.5,0.252,749.8,01.17,0.508
2016-05-31 01:30:00,2125E-3,5C000400,-0724,0831,12115,029.6,045.5,0.252,749.8,01.17,0.508
2016-05-31 01:31:00,2156E-3,5C000400,-0724,0831,12181,029.6,045.5,0.252,749.8,01.17,0.508
2016-05-31 01:32:00,2233E-3,5C000400,-0724,0831,12240,029.6,045.5,0.252,749.7,01.17,0.508
2016-05-31 01:33:00,2276E-3,5C000400,-0724,0831,12086,029.6,045.5,0.252,749.7,01.17,0.508
2016-05-31 01:34:00,2221E-3,5C000400,-0724,0832,12107,029.6,045.5,0.252,749.6,01.17,0.508
2016-05-31 01:35:00,2076E-3,5C000400,-0724,0832,12256,029.6,045.5,0.252,749.6,01.17,0.508
2016-05-31 01:36:00,2244E-3,5C000400,-0724,0832,11978,029.6,045.5,0.252,749.6,01.17,0.508
2016-05-31 01:37:00,2215E-3,5C000400,-0724,0832,11959,029.6,045.5,0.252,749.7,01.17,0.508
2016-05-31 01:38:00,2206E-3,5C000400,-0724,0832,12134,029.6,045.5,0.252,749.7,01.17,0.508
2016-05-31 01:39:00,2211E-3,5C000400,-0724,0831,12200,029.6,045.5,0.251,749.7,01.17,0.508
2016-05-31 01:40:00,2162E-3,5C000400,-0724,0832,12157,029.6,045.5,0.252,749.7,01.17,0.508
2016-05-31 01:41:00,2187E-3,5C000400,-0724,0832,12219,029.6,045.5,0.252,749.7,01.17,0.508
2016-05-31 01:42:00,2204E-3,5C000400,-0724,0831,12179,029.6,045.5,0.252,749.8,01.17,0.508
2016-05-31 01:43:00,2181E-3,5C000400,-0724,0832,12461,029.6,045.5,0.252,749.8,01.17,0.508
2016-05-31 01:44:00,2150E-3,5C000400,-0724,0831,12133,029.6,045.5,0.252,749.8,01.17,0.508
2016-05-31 01:45:00,2038E-3,5C000400,-0724,0832,12205,029.7,045.5,0.251,749.8,01.17,0.508
2016-05-31 01:46:00,2173E-3,5C000400,-0724,0831,12219,029.7,045.5,0.252,749.8,01.17,0.508
2016-05-31 01:47:00,2170E-3,5C000400,-0724,0831,12167,029.7,045.5,0.252,749.9,01.17,0.508
2016-05-31 01:48:00,2219E-3,5C000400,-0724,0832,12117,029.7,045.5,0.252,749.9,01.17,0.508
2016-05-31 01:49:00,2110E-3,5C000400,-0724,0831,12177,029.6,045.5,0.252,749.9,01.17,0.508
2016-05-31 01:50:00,2132E-3,5C000400,-0724,0831,12153,029.6,045.5,0.252,750.0,01.17,0.508
2016-05-31 01:51:00,2224E-3,5C000400,-0724,0831,12174,029.6,045.5,0.252,750.0,01.17,0.508
2016-05-31 01:52:00,2141E-3,5C000400,-0724,0832,12057,029.7,045.5,0.251,750.0,01.17,0.508
2016-05-31 01:53:00,2235E-3,5C000400,-0724,0832,12129,029.7,045.5,0.252,750.0,01.17,0.508
2016-05-31 01:54:00,2212E-3,5C000400,-0724,0831,12165,029.7,045.5,0.252,750.1,01.17,0.508
2016-05-31 01:55:00,2052E-3,5C000400,-0724,0832,12269,029.7,045.5,0.252,750.1,01.17,0.508
2016-05-31 01:56:00,2157E-3,5C000400,-0724,0832,12167,029.7,045.5,0.251,750.0,01.17,0.508
2016-05-31 01:57:00,2055E-3,5C000400,-0724,0832,12351,029.7,045.5,0.251,750.0,01.17,0.508
2016-05-31 01:58:00,2242E-3,5C000400,-0724,0831,12183,029.7,045.5,0.252,750.0,01.17,0.508
2016-05-31 01:59:00,2207E-3,5C000400,-0724,0832,12265,029.7,045.5,0.252,750.0,01.17,0.508
2016-05-31 02:00:00,2170E-3,5C000400,-0724,0832,12091,029.7,045.5,0.252,749.9,01.17,0.508
2016-05-31 02:01:00,2093E-3,5C000400,-0724,0832,12097,029.7,045.5,0.252,749.8,01.17,0.508
2016-05-31 02:02:00,2075E-3,5C000400,-0724,0832,12190,029.7,045.5,0.252,749.8,01.17,0.508
2016-05-31 02:03:00,2171E-3,5C000400,-0724,0831,12230,029.7,045.5,0.251,749.9,01.17,0.508
2016-05-31 02:04:00,2233E-3,5C000400,-0724,0830,12278,029.7,045.5,0.251,749.8,01.17,0.508
2016-05-31 02:05:00,2279E-3,5C000400,-0724,0833,12113,029.7,045.5,0.252,749.8,01.17,0.508
2016-05-31 02:06:00,2200E-3,5C000400,-0724,0830,12239,029.7,045.5,0.252,749.9,01.17,0.508
2016-05-31 02:07:00,2185E-3,5C000400,-0724,0831,12193,029.7,045.5,0.252,749.9,01.17,0.508
2016-05-31 02:08:00,2102E-3,5C000400,-0724,0832,12163,029.7,045.5,0.252,749.9,01.17,0.508
2016-05-31 02:09:00,2189E-3,5C000400,-0724,0832,12228,029.7,045.5,0.252,749.9,01.17,0.508
2016-05-31 02:10:00,2233E-3,5C000400,-0724,0832,12207,029.7,045.5,0.251,749.9,01.17,0.508
2016-05-31 02:11:00,2224E-3,5C000400,-0724,0832,12206,029.7,045.5,0.251,749.8,01.17,0.508
2016-05-31 02:12:00,2261E-3,5C000400,-0724,0831,12001,029.8,045.5,0.252,749.8,01.17,0.508
2016-05-31 02:13:00,2139E-3,5C000400,-0724,0832,12057,029.7,045.5,0.252,749.8,01.17,0.508
2016-05-31 02:14:00,2161E-3,5C000400,-0724,0832,12095,029.8,045.5,0.252,749.8,01.17,0.508
2016-05-31 02:15:00,2181E-3,5C000400,-0724,0832,12167,029.8,045.5,0.252,749.8,01.17,0.508
2016-05-31 02:16:00,2229E-3,5C000400,-0724,0832,12162,029.7,045.5,0.252,749.7,01.17,0.508
2016-05-31 02:17:00,1965E-3,5C000400,-0724,0831,12080,029.8,045.5,0.251,749.8,01.17,0.508
2016-05-31 02:18:00,2124E-3,5C000400,-0724,0831,12024,029.8,045.5,0.251,749.8,01.17,0.508
2016-05-31 02:19:00,2114E-3,5C000400,-0724,0832,12105,029.8,045.5,0.252,749.8,01.17,0.508
2016-05-31 02:20:00,2207E-3,5C000400,-0724,0832,12094,029.8,045.5,0.252,749.8,01.17,0.508
2016-05-31 02:21:00,2272E-3,5C000400,-0724,0832,11872,029.8,045.5,0.252,749.8,01.17,0.508
2016-05-31 02:22:00,2184E-3,5C000400,-0724,0831,12169,029.8,045.5,0.252,749.8,01.17,0.508
2016-05-31 02:23:00,2155E-3,5C000400,-0724,0831,12246,029.8,045.5,0.252,749.7,01.17,0.508
2016-05-31 02:24:00,2160E-3,5C000400,-0724,0832,12248,029.8,045.5,0.251,749.7,01.17,0.508
2016-05-31 02:25:00,2067E-3,5C000400,-0724,0831,12207,029.8,045.5,0.251,749.7,01.17,0.508
2016-05-31 02:26:00,2262E-3,5C000400,-0724,0831,12369,029.8,045.5,0.252,749.7,01.17,0.508
2016-05-31 02:27:00,2115E-3,5C000400,-0724,0831,12102,029.8,045.5,0.252,749.7,01.17,0.508
2016-05-31 02:28:00,2183E-3,5C000400,-0724,0831,12240,029.8,045.5,0.252,749.7,01.17,0.508
2016-05-31 02:29:00,2216E-3,5C000400,-0724,0831,12137,029.8,045.5,0.252,749.7,01.17,0.508
2016-05-31 02:30:00,2148E-3,5C000400,-0724,0831,12147,029.8,045.5,0.251,749.6,01.17,0.508
2016-05-31 02:31:00,2107E-3,5C000400,-0724,0831,12093,029.8,045.5,0.251,749.6,01.17,0.508
2016-05-31 02:32:00,2278E-3,5C000400,-0724,0831,12170,029.8,045.5,0.252,749.6,01.17,0.508
2016-05-31 02:33:00,2197E-3,5C000400,-0724,0831,12259,029.8,045.5,0.252,749.6,01.17,0.508
2016-05-31 02:34:00,2274E-3,5C000400,-0724,0831,12043,029.8,045.5,0.252,749.5,01.17,0.508
2016-05-31 02:35:00,2291E-3,5C000400,-0724,0831,12097,029.8,045.5,0.252,749.5,01.17,0.508
2016-05-31 02:36:00,2105E-3,5C000400,-0724,0831,12272,029.8,045.5,0.252,749.5,01.17,0.508
2016-05-31 02:37:00,2201E-3,5C000400,-0724,0832,12115,029.8,045.5,0.252,749.5,01.17,0.508
2016-05-31 02:38:00,2224E-3,5C000400,-0724,0831,12115,029.8,045.5,0.251,749.5,01.17,0.508
2016-05-31 02:39:00,2155E-3,5C000400,-0724,0831,12272,029.8,045.5,0.251,749.5,01.17,0.508
2016-05-31 02:40:00,2183E-3,5C000400,-0724,0831,12208,029.8,045.5,0.252,749.5,01.17,0.508
2016-05-31 02:41:00,2158E-3,5C000400,-0724,0832,12105,029.8,045.5,0.252,749.5,01.17,0.508
2016-05-31 02:42:00,2190E-3,5C000400,-0724,0832,12292,029.9,045.5,0.252,749.5,01.17,0.508
2016-05-31 02:43:00,2189E-3,5C000400,-0724,0832,12237,029.9,045.5,0.251,749.5,01.17,0.508
2016-05-31 02:44:00,2078E-3,5C000400,-0724,0832,12012,029.9,045.5,0.251,749.4,01.17,0.508
2016-05-31 02:45:00,2103E-3,5C000400,-0724,0831,12131,029.9,045.5,0.251,749.4,01.17,0.508
2016-05-31 02:46:00,2042E-3,5C000400,-0724,0831,11958,029.9,045.5,0.251,749.4,01.17,0.508
2016-05-31 02:47:00,2226E-3,5C000400,-0724,0832,12245,029.9,045.5,0.252,749.4,01.17,0.508
2016-05-31 02:48:00,2162E-3,5C000400,-0724,0831,12229,029.9,045.5,0.252,749.4,01.17,0.508
2016-05-31 02:49:00,2108E-3,5C000400,-0724,0832,12192,029.9,045.5,0.251,749.4,01.17,0.508
2016-05-31 02:50:00,2197E-3,5C000400,-0724,0831,12195,029.9,045.5,0.251,749.3,01.17,0.508
2016-05-31 02:51:00,2095E-3,5C000400,-0724,0831,12195,029.9,045.5,0.251,749.4,01.17,0.508
2016-05-31 02:52:00,2113E-3,5C000400,-0724,0831,12302,029.9,045.5,0.251,749.3,01.17,0.508
2016-05-31 02:53:00,2193E-3,5C000400,-0724,0831,11972,029.9,045.5,0.251,749.3,01.17,0.508
2016-05-31 02:54:00,2227E-3,5C000400,-0724,0831,12206,029.9,045.5,0.252,749.3,01.17,0.508
2016-05-31 02:55:00,2087E-3,5C000400,-0724,0831,12347,029.9,045.5,0.251,749.3,01.17,0.508
2016-05-31 02:56:00,2157E-3,5C000400,-0724,0831,12090,029.9,045.5,0.251,749.3,01.17,0.508
2016-05-31 02:57:00,2287E-3,5C000400,-0724,0832,12213,029.9,045.5,0.251,749.3,01.17,0.508
2016-05-31 02:58:00,2210E-3,5C000400,-0724,0831,12067,029.9,045.5,0.251,749.3,01.17,0.508
2016-05-31 02:59:00,2144E-3,5C000400,-0724,0832,12118,029.9,045.5,0.251,749.2,01.17,0.508
2016-05-31 03:00:00,2199E-3,5C000400,-0724,0831,12021,029.9,045.5,0.252,749.3,01.17,0.508
2016-05-31 03:01:00,2190E-3,5C000400,-0724,0832,12204,030.0,045.5,0.251,749.3,01.17,0.508
2016-05-31 03:02:00,2209E-3,5C000400,-0724,0832,12126,030.0,045.5,0.251,749.3,01.17,0.508
2016-05-31 03:03:00,2231E-3,5C000400,-0724,0831,12067,030.0,045.5,0.251,749.2,01.17,0.508
2016-05-31 03:04:00,2153E-3,5C000400,-0724,0831,12289,030.0,045.5,0.251,749.2,01.17,0.508
2016-05-31 03:05:00,2347E-3,5C000400,-0724,0831,12066,030.0,045.5,0.251,749.2,01.17,0.508
2016-05-31 03:06:00,2132E-3,5C000400,-0724,0832,12138,030.0,045.5,0.251,749.2,01.17,0.508
2016-05-31 03:07:00,2198E-3,5C000400,-0724,0831,12232,030.0,045.5,0.251,749.1,01.17,0.508
2016-05-31 03:08:00,2074E-3,5C000400,-0724,0832,12238,030.0,045.5,0.251,749.1,01.17,0.508
2016-05-31 03:09:00,2077E-3,5C000400,-0724,0832,12052,030.0,045.5,0.251,749.0,01.17,0.508
2016-05-31 03:10:00,2127E-3,5C000400,-0724,0831,12269,030.1,045.5,0.251,749.0,01.17,0.508
2016-05-31 03:11:00,2232E-3,5C000400,-0724,0832,12197,030.0,045.5,0.251,749.0,01.17,0.508
2016-05-31 03:12:00,2206E-3,5C000400,-0724,0832,12043,030.0,045.5,0.251,748.9,01.17,0.508
2016-05-31 03:13:00,2127E-3,5C000400,-0724,0832,12164,030.1,045.5,0.251,749.0,01.17,0.508
2016-05-31 03:14:00,2085E-3,5C000400,-0724,0832,12010,030.1,045.5,0.251,748.9,01.17,0.508
2016-05-31 03:15:00,2181E-3,5C000400,-0724,0832,12172,030.1,045.5,0.251,749.0,01.17,0.508
2016-05-31 03:16:00,2064E-3,5C000400,-0724,0832,11971,030.1,045.5,0.251,749.0,01.17,0.508
2016-05-31 03:17:00,2038E-3,5C000400,-0724,0831,12250,030.1,045.5,0.251,749.0,01.17,0.508
2016-05-31 03:18:00,2157E-3,5C000400,-0724,0831,12245,030.1,045.5,0.251,749.0,01.17,0.508
2016-05-31 03:19:00,2174E-3,5C000400,-0724,0831,12193,030.1,045.5,0.251,749.0,01.17,0.508
2016-05-31 03:20:00,2246E-3,5C000400,-0724,0832,12242,030.1,045.5,0.251,749.0,01.17,0.508
2016-05-31 03:21:00,2195E-3,5C000400,-0724,0832,12025,030.1,045.5,0.251,749.0,01.17,0.508
2016-05-31 03:22:00,2145E-3,5C000400,-0724,0831,12169,030.1,045.5,0.251,748.9,01.17,0.508
2016-05-31 03:23:00,2095E-3,5C000400,-0724,0831,12096,030.1,045.5,0.251,748.9,01.17,0.508
2016-05-31 03:24:00,2177E-3,5C000400,-0724,0831,12095,030.2,045.5,0.251,748.9,01.17,0.508
2016-05-31 03:25:00,2126E-3,5C000400,-0724,0833,12298,030.1,045.5,0.251,748.9,01.17,0.508
2016-05-31 03:26:00,2154E-3,5C000400,-0724,0832,12207,030.2,045.5,0.251,748.9,01.17,0.508
2016-05-31 03:27:00,2143E-3,5C000400,-0724,0832,12231,030.2,045.5,0.251,748.9,01.17,0.508
2016-05-31 03:28:00,2157E-3,5C000400,-0724,0832,12108,030.2,045.5,0.251,748.9,01.17,0.508
2016-05-31 03:29:00,2216E-3,5C000400,-0724,0832,12092,030.2,045.5,0.251,748.9,01.17,0.508
2016-05-31 03:30:00,2159E-3,5C000400,-0724,0832,12175,030.2,045.5,0.251,748.9,01.17,0.508
2016-05-31 03:31:00,2256E-3,5C000400,-0724,0832,12255,030.2,045.5,0.251,748.9,01.17,0.508
2016-05-31 03:32:00,2100E-3,5C000400,-0724,0832,12049,030.2,045.5,0.251,748.9,01.17,0.508
2016-05-31 03:33:00,2134E-3,5C000400,-0724,0831,12233,030.2,045.5,0.251,748.8,01.17,0.508
2016-05-31 03:34:00,2226E-3,5C000400,-0724,0832,12191,030.2,045.5,0.251,748.8,01.17,0.508
2016-05-31 03:35:00,2214E-3,5C000400,-0724,0832,12205,030.2,045.5,0.251,748.7,01.17,0.508
2016-05-31 03:36:00,2080E-3,5C000400,-0724,0832,12245,030.2,045.5,0.251,748.8,01.17,0.508
2016-05-31 03:37:00,2309E-3,5C000400,-0724,0832,12243,030.3,045.5,0.250,748.8,01.17,0.508
2016-05-31 03:38:00,2213E-3,5C000400,-0724,0832,12281,030.3,045.5,0.251,748.8,01.17,0.508
2016-05-31 03:39:00,2125E-3,5C000400,-0724,0832,12220,030.3,045.5,0.251,748.8,01.17,0.508
2016-05-31 03:40:00,2123E-3,5C000400,-0724,0831,12166,030.3,045.5,0.251,748.8,01.17,0.508
2016-05-31 03:41:00,2137E-3,5C000400,-0724,0832,12169,030.3,045.5,0.251,748.8,01.17,0.508
2016-05-31 03:42:00,2143E-3,5C000400,-0724,0831,12161,030.3,045.5,0.250,748.8,01.17,0.508
2016-05-31 03:43:00,2150E-3,5C000400,-0724,0832,12254,030.3,045.5,0.250,748.8,01.17,0.508
2016-05-31 03:44:00,2268E-3,5C000400,-0724,0831,12111,030.3,045.5,0.251,748.8,01.17,0.508
2016-05-31 03:45:00,2145E-3,5C000400,-0724,0832,12144,030.3,045.5,0.251,748.8,01.17,0.508
2016-05-31 03:46:00,2290E-3,5C000400,-0724,0832,12023,030.3,045.5,0.251,748.8,01.17,0.508
2016-05-31 03:47:00,2176E-3,5C000400,-0724,0832,12138,030.3,045.5,0.251,748.8,01.17,0.508
2016-05-31 03:48:00,2197E-3,5C000400,-0724,0831,12181,030.4,045.5,0.250,748.8,01.17,0.508
2016-05-31 03:49:00,2128E-3,5C000400,-0724,0831,12224,030.4,045.5,0.250,748.8,01.17,0.508
2016-05-31 03:50:00,2182E-3,5C000400,-0724,0831,12108,030.4,045.5,0.251,748.8,01.17,0.508
2016-05-31 03:51:00,2167E-3,5C000400,-0724,0832,12198,030.4,045.5,0.251,748.8,01.17,0.508
2016-05-31 03:52:00,2193E-3,5C000400,-0724,0832,12184,030.4,045.5,0.251,748.8,01.17,0.508
2016-05-31 03:53:00,2089E-3,5C000400,-0724,0832,12087,030.4,045.5,0.251,748.8,01.17,0.508
2016-05-31 03:54:00,2304E-3,5C000400,-0724,0832,12231,030.4,045.5,0.250,748.9,01.17,0.508
2016-05-31 03:55:00,2167E-3,5C000400,-0724,0832,12156,030.4,045.5,0.250,748.8,01.17,0.508
2016-05-31 03:56:00,2271E-3,5C000400,-0724,0832,12058,030.4,045.5,0.251,748.7,01.17,0.508
2016-05-31 03:57:00,2118E-3,5C000400,-0724,0832,12085,030.4,045.5,0.251,748.7,01.17,0.508
2016-05-31 03:58:00,2168E-3,5C000400,-0724,0832,12179,030.4,045.5,0.251,748.7,01.17,0.508
2016-05-31 03:59:00,2111E-3,5C000400,-0724,0831,12170,030.4,045.5,0.250,748.6,01.17,0.508
2016-05-31 04:00:00,2047E-3,5C000400,-0724,0832,12127,030.5,045.5,0.250,748.5,01.17,0.508
2016-05-31 04:01:00,2167E-3,5C000400,-0724,0832,11972,030.5,045.5,0.250,748.4,01.17,0.508
2016-05-31 04:02:00,2281E-3,5C000400,-0724,0831,12123,030.4,045.5,0.250,748.4,01.17,0.508
2016-05-31 04:03:00,2183E-3,5C000400,-0724,0832,12173,030.5,045.5,0.251,748.4,01.17,0.508
2016-05-31 04:04:00,2114E-3,5C000400,-0724,0832,12039,030.5,045.5,0.250,748.4,01.17,0.508
2016-05-31 04:05:00,2121E-3,5C000400,-0724,0832,12120,030.5,045.5,0.250,748.4,01.17,0.508
2016-05-31 04:06:00,2195E-3,5C000400,-0724,0832,12120,030.5,045.5,0.250,748.4,01.17,0.508
2016-05-31 04:07:00,2146E-3,5C000400,-0724,0831,12097,030.5,045.5,0.250,748.3,01.17,0.508
2016-05-31 04:08:00,2031E-3,5C000400,-0724,0832,12131,030.5,045.5,0.250,748.3,01.17,0.508
2016-05-31 04:09:00,2121E-3,5C000400,-0724,0831,12176,030.5,045.5,0.250,748.3,01.17,0.508
2016-05-31 04:10:00,2162E-3,5C000400,-0724,0833,12191,030.5,045.5,0.250,748.2,01.17,0.508
2016-05-31 04:11:00,2059E-3,5C000400,-0724,0832,12328,030.5,045.5,0.250,748.1,01.17,0.508
2016-05-31 04:12:00,2296E-3,5C000400,-0724,0831,12090,030.5,045.5,0.250,748.2,01.17,0.508
2016-05-31 04:13:00,2140E-3,5C000400,-0724,0831,12176,030.5,045.5,0.250,748.2,01.17,0.508
2016-05-31 04:14:00,2254E-3,5C000400,-0724,0832,12159,030.5,045.5,0.251,748.2,01.17,0.508
2016-05-31 04:15:00,2293E-3,5C000400,-0724,0832,12273,030.5,045.5,0.250,748.1,01.17,0.508
2016-05-31 04:16:00,2119E-3,5C000400,-0724,0832,12094,030.5,045.5,0.250,748.1,01.17,0.508
2016-05-31 04:17:00,2154E-3,5C000400,-0724,0832,12152,030.6,045.5,0.250,748.1,01.17,0.508
2016-05-31 04:18:00,2111E-3,5C000400,-0724,0831,12077,030.6,045.5,0.250,748.2,01.17,0.508
2016-05-31 04:19:00,1973E-3,5C000400,-0724,0832,12217,030.6,045.5,0.250,748.2,01.17,0.508
2016-05-31 04:20:00,2229E-3,5C000400,-0724,0832,12131,030.6,045.5,0.250,748.2,01.17,0.508